• MPC Preparation (Info)

  • MPEC 2014-F45 : 2014 FV32

    The following Minor Planet Electronic Circular may be linked-to from your own Web pages, but must not otherwise be redistributed electronically.

    A form allowing access to any MPEC is at the bottom of this page.


    Read MPEC 2014-F44 Read MPEC 2014-F46


    M.P.E.C. 2014-F45                                Issued 2014 Mar. 26, 22:13 UT
    
         The Minor Planet Electronic Circulars contain information on unusual
             minor planets and routine data on comets.  They are published
       on behalf of Commission 20 of the International Astronomical Union by the
              Minor Planet Center, Smithsonian Astrophysical Observatory,
                              Cambridge, MA 02138, U.S.A.
    
                 Prepared using the Tamkin Foundation Computer Network
    
                                  MPC@CFA.HARVARD.EDU
                URL https://www.minorplanetcenter.net/    ISSN 1523-6714
    
                                       2014 FV32
    
    Observations:
         K14F32V* C2014 03 25.33329 12 28 40.02 +17 55 01.6          21.6 VqEF045G96
         K14F32V  C2014 03 25.34062 12 28 39.15 +17 55 16.8          21.6 VqEF045G96
         K14F32V  C2014 03 25.34616 12 28 38.54 +17 55 28.0          22.2 VqEF045G96
         K14F32V  C2014 03 25.35171 12 28 37.92 +17 55 39.7          21.3 VqEF045G96
         K14F32V  C2014 03 25.38551 12 28 34.22 +17 56 47.3          21.4 VqEF045G96
         K14F32V  C2014 03 25.38810 12 28 33.92 +17 56 52.8          21.6 VqEF045G96
         K14F32V  C2014 03 25.39069 12 28 33.60 +17 56 58.0          20.9 VqEF045G96
         K14F32V  C2014 03 25.39328 12 28 33.37 +17 57 02.9          21.6 VqEF045G96
         K14F32V  C2014 03 25.39589 12 28 33.03 +17 57 08.8          21.6 VqEF045G96
         K14F32V KC2014 03 26.31107612 26 58.93 +18 28 19.3          21.5 VrEF045H21
         K14F32V  C2014 03 26.32567 12 26 57.82 +18 28 53.9          21.5 RoEF045926
         K14F32V KC2014 03 26.32742412 26 57.12 +18 28 53.5          21.3 VrEF045H21
         K14F32V  C2014 03 26.33978 12 26 56.19 +18 29 23.1          21.3 RoEF045926
         K14F32V IC2014 03 26.34377512 26 55.25 +18 29 26.6          21.2 VrEF045H21
         K14F32V  C2014 03 26.35097 12 26 54.93 +18 29 46.2          21.7 RoEF045926
         K14F32V  C2014 03 26.42675 12 26 46.28 +18 32 21.2          22.2 VqEF045G96
         K14F32V  C2014 03 26.42782 12 26 46.15 +18 32 22.5          21.1 VqEF045G96
         K14F32V  C2014 03 26.42892 12 26 46.02 +18 32 24.6          22.1 VqEF045G96
    
    Observer details:
    926 Tenagra II Observatory.  Observers M. Schwartz, P. R. Holvorcem.  0.81-m
        f/7 Ritchey-Chretien + CCD.
    G96 Mt. Lemmon Survey.  Observers R. E. Hill, A. R. Gibbs.  Measurers
        E. J. Christensen, A. R. Gibbs, A. D. Grauer, R. E. Hill, J. A. Johnson,
        R. A. Kowalski, S. M. Larson, F. C. Shelly.  1.5-m reflector + CCD.
    H21 Astronomical Research Observatory, Westfield.  Observer R. Holmes.
        Measurers S. Foglia, L. Buzzi, H. Devore, T. Linder, T. Lister,
        T. Vorobjov, R. Holmes.  0.61-m f/4.0 astrograph + CCD, 0.76-m f/3.0
        astrograph + CCD.
    
    Orbital elements:
    2014 FV32                                                Earth MOID = 0.0746 AU
    Epoch 2014 May 23.0 TT = JDT 2456800.5                  MPC
    M 337.14688              (2000.0)            P               Q
    n   0.58408265     Peri.  168.38969     +0.31309616     +0.94620373
    a   1.4173807      Node   119.80947     -0.87871371     +0.32123816
    e   0.4096177      Incl.    5.40063     -0.36032349     +0.03878842
    P   1.69           H   22.5           G   0.15           U   9
    Residuals in seconds of arc
    140325 G96  0.8+  0.3-    140325 G96  0.5-  0.0     140326 926  0.3-  0.1+
    140325 G96  0.1-  0.0     140325 G96  0.3+  0.3-    140326 H21  0.1+  0.2-
    140325 G96  0.0   0.0     140325 G96  0.5-  0.3+    140326 926  0.1+  0.2+
    140325 G96  0.1-  0.5+    140326 H21  0.3-  0.7-    140326 G96  0.2+  0.8+
    140325 G96  0.2+  0.2-    140326 926  0.3-  0.1-    140326 G96  0.1+  0.1-
    140325 G96  0.0   0.0     140326 H21  0.4+  0.1+    140326 G96  0.0   0.2-
    
    Ephemeris:
    2014 FV32                a,e,i = 1.42, 0.41, 5                   q = 0.8368
    Date    TT    R. A. (2000) Decl.     Delta      r     Elong.  Phase     V
    2014 02 24    12 49 10.0 +06 04 52   0.5714  1.4933   144.8    22.5    23.2
    ...
    2014 03 11    12 45 21.2 +10 53 14   0.4345  1.4068   158.6    14.9    22.3
    ...
    2014 03 19    12 37 49.2 +14 31 56   0.3758  1.3583   162.3    12.9    21.8
    ...
    2014 03 25    12 29 13.5 +17 43 51   0.3388  1.3211   160.3    14.7    21.6
    2014 03 26    12 27 32.0 +18 17 49   0.3332  1.3149   159.6    15.4    21.6
    2014 03 27    12 25 46.1 +18 52 14   0.3278  1.3086   158.7    16.1    21.5
    ...
    2014 04 02    12 13 38.6 +22 26 25   0.2986  1.2705   151.8    21.8    21.5
    ...
    2014 04 10    11 53 45.2 +27 18 54   0.2678  1.2191   140.0    31.9    21.4
    ...
    2014 04 25    11 07 46.7 +35 39 44   0.2279  1.1219   115.2    54.2    21.5
    
    A. U. Tomatic                (C) Copyright 2014 MPC           M.P.E.C. 2014-F45
    

    Read MPEC 2014-F44 Read MPEC 2014-F46


    MPEC number:

    Enter an MPEC number in one of the following forms:

    • 1997-B01 (the full form)
    • J97B01 (the packed version of the full form)
    • B01 (the abbreviated form)